• In Netherlands
  • List of Countries
  • For 7 days
  • Water Temperature
  • Satellite Maps
  • Weather Map
  • Weather Widgets
  • user-avatar
    Login

    Hourly Weather Elbasan

    Today, 23 June, Friday

    Time Temperature Precipitation Wind Pressure Humidity
    00:00 +17°C° 0 mm 0 mps 737 mmHg 84%
    01:00 +17°C° 0 mm 0 mps 736 mmHg 85%
    02:00 +17°C° 0 mm 0 mps 736 mmHg 85%
    03:00 +16°C° 0 mm 0 mps 736 mmHg 85%
    04:00 +16°C° 0 mm 0 mps 736 mmHg 85%
    05:00 +19°C° 0 mm 0 mps 737 mmHg 74%
    06:00 +23°C° 0 mm 0 mps 737 mmHg 63%
    07:00 +26°C° 0 mm 0 mps 737 mmHg 53%
    08:00 +30°C° 0 mm 1 mps 737 mmHg 47%
    09:00 +31°C° 0 mm 1 mps 737 mmHg 41%
    10:00 +34°C° 0 mm 2 mps 737 mmHg 35%
    11:00 +34°C° 0 mm 2 mps 737 mmHg 34%
    12:00 +35°C° 0 mm 3 mps 737 mmHg 33%
    13:00 +35°C° 0 mm 4 mps 737 mmHg 31%
    14:00 +35°C° 0 mm 4 mps 736 mmHg 33%
    15:00 +34°C° 0 mm 3 mps 736 mmHg 35%
    16:00 +33°C° 0 mm 3 mps 736 mmHg 36%
    17:00 +30°C° 0 mm 3 mps 736 mmHg 47%
    18:00 +27°C° 0 mm 2 mps 736 mmHg 57%
    19:00 +24°C° 0 mm 1 mps 735 mmHg 67%
    20:00 +22°C° 0 mm 1 mps 736 mmHg 71%
    21:00 +21°C° 0 mm 1 mps 736 mmHg 74%
    22:00 +18°C° 0 mm 0 mps 736 mmHg 78%
    23:00 +18°C° 0 mm 0 mps 736 mmHg 79%

    Tomorrow, 24 June, Saturday

    Time Temperature Precipitation Wind Pressure Humidity
    00:00 +17°C° 0 mm 0 mps 736 mmHg 80%
    01:00 +17°C° 0 mm 0 mps 736 mmHg 81%
    02:00 +17°C° 0 mm 0 mps 736 mmHg 81%
    03:00 +16°C° 0 mm 0 mps 735 mmHg 82%
    04:00 +16°C° 0 mm 0 mps 735 mmHg 82%
    05:00 +19°C° 0 mm 0 mps 736 mmHg 71%
    06:00 +23°C° 0 mm 0 mps 736 mmHg 59%
    07:00 +26°C° 0 mm 0 mps 736 mmHg 47%
    08:00 +30°C° 0 mm 1 mps 736 mmHg 43%
    09:00 +32°C° 0 mm 1 mps 736 mmHg 39%
    10:00 +34°C° 0 mm 1 mps 736 mmHg 34%
    11:00 +35°C° 0.1 mm 2 mps 736 mmHg 34%
    12:00 +36°C° 0.1 mm 2 mps 736 mmHg 33%
    13:00 +37°C° 0.1 mm 2 mps 736 mmHg 33%
    14:00 +36°C° 0.2 mm 2 mps 736 mmHg 35%
    15:00 +35°C° 0.2 mm 2 mps 735 mmHg 38%
    16:00 +34°C° 0.2 mm 2 mps 735 mmHg 40%
    17:00 +31°C° 0.1 mm 2 mps 735 mmHg 50%
    18:00 +28°C° 0.1 mm 1 mps 735 mmHg 61%
    19:00 +25°C° 0.1 mm 1 mps 735 mmHg 71%
    20:00 +24°C° 0.1 mm 1 mps 735 mmHg 73%
    21:00 +24°C° 0.1 mm 1 mps 735 mmHg 75%
    22:00 +23°C° 0.1 mm 1 mps 735 mmHg 76%
    23:00 +23°C° 0.1 mm 1 mps 735 mmHg 77%

    Day after tomorrow, 25 June, Sunday

    Time Temperature Precipitation Wind Pressure Humidity
    00:00 +22°C° 0.1 mm 1 mps 735 mmHg 78%
    01:00 +22°C° 0.1 mm 1 mps 735 mmHg 79%
    02:00 +22°C° 0 mm 1 mps 735 mmHg 80%
    03:00 +21°C° 0 mm 1 mps 735 mmHg 81%
    04:00 +21°C° 0 mm 1 mps 735 mmHg 83%
    05:00 +24°C° 0 mm 1 mps 735 mmHg 74%
    06:00 +24°C° 0 mm 0 mps 735 mmHg 65%
    07:00 +27°C° 0 mm 0 mps 735 mmHg 56%
    08:00 +31°C° 0 mm 1 mps 735 mmHg 50%
    09:00 +33°C° 0 mm 1 mps 735 mmHg 45%
    10:00 +35°C° 0 mm 1 mps 735 mmHg 39%
    11:00 +36°C° 0.4 mm 2 mps 735 mmHg 38%
    12:00 +36°C° 0.4 mm 2 mps 734 mmHg 38%
    13:00 +36°C° 0.4 mm 3 mps 734 mmHg 38%
    14:00 +36°C° 0.5 mm 3 mps 734 mmHg 40%
    15:00 +35°C° 0.5 mm 2 mps 733 mmHg 43%
    16:00 +34°C° 0.5 mm 2 mps 733 mmHg 45%
    17:00 +31°C° 0.1 mm 2 mps 733 mmHg 54%
    18:00 +28°C° 0.1 mm 1 mps 733 mmHg 62%
    19:00 +26°C° 0.1 mm 1 mps 733 mmHg 71%
    20:00 +24°C° 0 mm 1 mps 733 mmHg 74%
    21:00 +23°C° 0 mm 1 mps 733 mmHg 76%
    22:00 +22°C° 0 mm 1 mps 733 mmHg 79%
    23:00 +21°C° 0 mm 1 mps 733 mmHg 80%

    26 June, Monday

    Time Temperature Precipitation Wind Pressure Humidity
    00:00 +19°C° 0 mm 0 mps 733 mmHg 81%
    01:00 +18°C° 0 mm 0 mps 733 mmHg 82%
    02:00 +18°C° 0 mm 0 mps 733 mmHg 82%
    03:00 +18°C° 0 mm 0 mps 733 mmHg 81%
    04:00 +19°C° 0 mm 1 mps 733 mmHg 81%
    05:00 +20°C° 0 mm 0 mps 733 mmHg 71%
    06:00 +24°C° 0 mm 0 mps 733 mmHg 60%
    07:00 +27°C° 0 mm 0 mps 734 mmHg 50%
    08:00 +31°C° 0 mm 1 mps 734 mmHg 45%
    09:00 +32°C° 0 mm 1 mps 734 mmHg 39%
    10:00 +34°C° 0 mm 1 mps 734 mmHg 34%
    11:00 +36°C° 0 mm 2 mps 734 mmHg 33%
    12:00 +36°C° 0 mm 2 mps 734 mmHg 32%
    13:00 +37°C° 0 mm 3 mps 734 mmHg 31%
    14:00 +36°C° 0.1 mm 3 mps 733 mmHg 34%
    15:00 +35°C° 0.1 mm 3 mps 733 mmHg 37%
    16:00 +34°C° 0.1 mm 3 mps 733 mmHg 41%
    17:00 +31°C° 0.1 mm 2 mps 733 mmHg 50%
    18:00 +28°C° 0.1 mm 2 mps 733 mmHg 60%
    19:00 +25°C° 0.1 mm 1 mps 733 mmHg 70%
    20:00 +24°C° 0.1 mm 1 mps 734 mmHg 73%
    21:00 +23°C° 0.1 mm 1 mps 734 mmHg 76%
    22:00 +20°C° 0.1 mm 0 mps 734 mmHg 79%
    23:00 +22°C° 0.2 mm 1 mps 734 mmHg 79%

    27 June, Tuesday

    Time Temperature Precipitation Wind Pressure Humidity
    00:00 +22°C° 0.2 mm 1 mps 734 mmHg 79%
    01:00 +22°C° 0.2 mm 1 mps 734 mmHg 80%
    02:00 +21°C° 0 mm 1 mps 734 mmHg 81%
    03:00 +21°C° 0 mm 1 mps 734 mmHg 82%
    04:00 +21°C° 0 mm 1 mps 734 mmHg 83%
    05:00 +24°C° 0 mm 1 mps 734 mmHg 76%
    06:00 +26°C° 0 mm 1 mps 735 mmHg 68%
    07:00 +29°C° 0 mm 1 mps 735 mmHg 61%
    08:00 +31°C° 0.1 mm 1 mps 735 mmHg 54%
    09:00 +32°C° 0.1 mm 1 mps 735 mmHg 47%
    10:00 +34°C° 0.1 mm 1 mps 736 mmHg 40%
    11:00 +36°C° 0.2 mm 2 mps 735 mmHg 38%
    12:00 +36°C° 0.2 mm 2 mps 735 mmHg 37%
    13:00 +37°C° 0.2 mm 3 mps 735 mmHg 35%
    14:00 +36°C° 0.2 mm 3 mps 735 mmHg 36%
    15:00 +35°C° 0.2 mm 3 mps 734 mmHg 37%
    16:00 +35°C° 0.2 mm 3 mps 734 mmHg 38%
    17:00 +31°C° 0 mm 2 mps 734 mmHg 48%
    18:00 +28°C° 0 mm 1 mps 734 mmHg 58%
    19:00 +25°C° 0 mm 1 mps 734 mmHg 68%
    20:00 +24°C° 0 mm 1 mps 734 mmHg 72%
    21:00 +23°C° 0 mm 1 mps 734 mmHg 76%
    22:00 +22°C° 0 mm 1 mps 735 mmHg 80%
    23:00 +21°C° 0 mm 1 mps 734 mmHg 80%

    28 June, Wednesday

    Time Temperature Precipitation Wind Pressure Humidity
    00:00 +21°C° 0 mm 1 mps 734 mmHg 80%
    01:00 +18°C° 0 mm 0 mps 734 mmHg 80%
    02:00 +18°C° 0 mm 0 mps 734 mmHg 81%
    03:00 +17°C° 0 mm 0 mps 734 mmHg 82%
    04:00 +17°C° 0 mm 0 mps 734 mmHg 82%
    05:00 +21°C° 0 mm 0 mps 734 mmHg 70%
    06:00 +24°C° 0 mm 0 mps 734 mmHg 57%
    07:00 +28°C° 0 mm 0 mps 735 mmHg 45%
    08:00 +31°C° 0 mm 1 mps 735 mmHg 40%
    09:00 +33°C° 0 mm 1 mps 735 mmHg 35%
    10:00 +34°C° 0 mm 1 mps 734 mmHg 30%
    11:00 +36°C° 0 mm 2 mps 734 mmHg 29%
    12:00 +37°C° 0 mm 2 mps 734 mmHg 28%
    13:00 +38°C° 0 mm 3 mps 734 mmHg 27%
    14:00 +37°C° 0 mm 3 mps 733 mmHg 29%
    15:00 +36°C° 0 mm 3 mps 733 mmHg 31%
    16:00 +36°C° 0 mm 3 mps 733 mmHg 33%
    17:00 +32°C° 0 mm 2 mps 733 mmHg 44%
    18:00 +29°C° 0 mm 2 mps 733 mmHg 54%
    19:00 +26°C° 0 mm 1 mps 733 mmHg 65%
    20:00 +24°C° 0 mm 1 mps 733 mmHg 69%
    21:00 +23°C° 0 mm 1 mps 733 mmHg 72%
    22:00 +22°C° 0 mm 1 mps 733 mmHg 76%
    23:00 +21°C° 0 mm 1 mps 733 mmHg 76%
    Show more